Location: Unspecified
(0.0000°N, 0.0000°E)
Time: 00:18:14
(UTC+00:00)

CAPRICORN - Pass Details

Date: 24 May 2026
Orbit: 325 x 40040 km, 64.5° (Epoch: 16 April)

Event Time Altitude Azimuth Distance (km) Brightness Sun altitude
Rises 20:05:49 0° 110° (ESE) 42,935 ? -29.9°
Reaches altitude 10° 20:55:05 10° 105° (ESE) 43,978 ? -41.0°
Maximum altitude 01:21:06 60° 49° (NE) 29,400 ? -60.8°
Drops below altitude 10° 03:12:59 10° 16° (NNE) 13,008 ? -37.8°
Sets 03:19:37 0° 18° (NNE) 12,217 ? -36.3°
